Location: L�beck
(53.8752°N, 10.6787°E)
Time: 08:11:31
(UTC+01:00)

ISS - Pass Details

Date: 11 January 2018
Orbit: 401 x 406 km, 51.6° (Epoch: 17 January)

Event Time Altitude Azimuth Distance (km) Brightness Sun altitude
Exits shadow 07:15:07 10° 253° (WSW) 1,473 -1.4 -10.5°
Reaches altitude 10° 07:15:09 10° 252° (WSW) 1,465 -1.5 -10.5°
Maximum altitude 07:17:07 15° 215° (SW) 1,195 -1.6 -10.2°
Drops below altitude 10° 07:19:06 10° 178° (S) 1,462 -0.7 -9.9°
Sets 07:21:47 0° 154° (SSE) 2,319 0.9 -9.6°
